Location: La Brionne
(46.1728°N, 1.7849°E)
Time: 21:42:01
(UTC+00:00)

OBJECT-B - Pass Details

Date: 16 June 2021
Orbit: 414 x 423 km, 97.0° (Epoch: 05 June)

Event Time Altitude Azimuth Distance (km) Brightness Sun altitude
Rises 20:37:25 0° 210° (SSW) 2,352 4.4 -7.5°
Reaches altitude 10° 20:40:18 10° 240° (WSW) 1,495 3.7 -7.8°
Maximum altitude 20:41:49 13° 269° (W) 1,337 3.9 -8.0°
Drops below altitude 10° 20:43:21 10° 298° (WNW) 1,500 4.9 -8.2°
Sets 20:46:16 0° 328° (NNW) 2,369 6.6 -8.5°
